Погода в Глинном

Россия / Белгородская область     50°50′18″N   37°57′13″E
темп.,
°C
ветер,
м/с
пор.,
м/с
влажн.,
%
обл.,
%
осадки,
мм/ч
давл.,
гПа
погр.,
м
8 марта, пн
пн800:00−1зюз91593100 0.3 10081032
03:00−1зюз7138899 0.7 1007746
06:00−1зюз8139598 0.4 1006765
09:000зюз8138999 1.1 1006879
12:00+1зюз71087100 0.6 1007875
15:00−1зсз5788100 2.1 1007608
18:00−1з258694 0.3 1008340
21:00−3сз228565 0.4 101076
9 марта, вт
вт900:00−3зсз2485100 0.0 1010272
03:00−4зсз248892 0.0 1011200
06:00−4зсз3591100 0.2 1012441
09:00−5ссз5782100 0.3 1013603
12:00−4ссз566691 0.0 1015981
15:00−4ссз576895 0.1 10171072
18:00−6ссз5774100 0.1 1018934
21:00−8ссз5874100 0.1 1021764
10 марта, ср
ср1000:00−9ссз477227 0.0 1022753
03:00−10сз467839 0.0 1024623
06:00−10ссз478065 0.0 1025601
09:00−11ссз577353 0.0 1027559
12:00−8ссз46560 0.0 1028807
15:00−7ссз45492 0.0 1028978
18:00−8с345987 0.0 1028803
21:00−9ссв348085 0.0 1029437
11 марта, чт
чт1100:00−11св457392 0.0 1030437
03:00−12св346595 0.0 1031408
06:00−13всв457053 0.0 1032395
09:00−13всв456127 0.0 1033369
12:00−10в45420 0.0 1033714
15:00−8в34380 0.0 1033975
18:00−9в33440 0.0 1032894
21:00−10в34530 0.0 1033539
12 марта, пт
пт1200:00−11юв35580 0.0 1034463
03:00−11юв36640 0.0 1033401
06:00−12юв35690 0.0 1034293
09:00−11ююв57550 0.0 1034431
12:00−8ююв57410 0.0 1034705
15:00−6ююв573730 0.0 1032877
18:00−6ююв5838100 0.0 1031874
21:00−7ююв5114299 0.0 1031645